KUIPER-00092

Last updated on Sat Aug 16 2025 00:02:06 GMT+0000 (Coordinated Universal Time)

1 64837U 25151X 25227.46325495 .00033572 00000+0 94827-3 0 9990 2 64837 51.8775 141.9953 0005222 248.5100 111.5329 15.36040487 5843
UTC large
Height (km)
Speed (km/s)
/
Latitude / Longitude
Inclination (degrees)
Orbital Period (minutes)
Azimuth
Elevation
Range (km)
Doppler Factor

Next 0 passes for location: London (51.5072 / 0.1276)

Sorry there are no passes over London.